Location: Jaite
(41.2884°N, 81.5737°W)
Time: 17:18:34
(UTC+00:00)

BREEZE-M DEB (TANK) - Pass Details

Date: 18 January 2020
Orbit: 278 x 13109 km, 49.6° (Epoch: 19 February)

Event Time Altitude Azimuth Distance (km) Brightness Sun altitude
Exits shadow 10:59:22 45° 318° (NW) 841 2.8 -20.2°
Maximum altitude 10:59:56 49° 347° (NNW) 866 3.1 -20.1°
Drops below altitude 10° 11:07:49 10° 61° (ENE) 4,093 7.4 -18.7°
Sets 11:14:16 0° 67° (ENE) 6,779 8.8 -17.5°
